Current weather by "City, St" or "zip code"  
 

Current Conditions: Slayton Municipal Airport, MN

Overcast


32.0 F

Last Updated on Oct 29 2020, 8:53 pm CDT
Humidity: 83%
Wind Speed: SE 4.6 mph
Barometer 30.12 in
Dewpoint: 27.5 F
Visibility: 10.00 mi
Precip: --
Heat Index: NA
Wind Chill: 27 F
Current conditions at:

Slayton Municipal Airport, MN (KDVP)

Lat: 43.99055 Lon: 95.78102

Local Radar Image active severe weather and emergency alerts image image weather storm and storm spotter reports image weather observation monitoring service image
Local
Radar
Active
Alerts
Storm Reports Obs
Monitoring

Sign-up For Email & Text Message Weather Alert Notification Services



Advertise Here

Observation History for Slayton Municipal Airport, MN


Time Wind
(mph)
Vis
(mi)
Weather Precip (in) Temperature (F) Relative
Humidity
Wind
Chill
(F)
Heat
Index
(F)
Pressure
Air Dwpt altimeter
(in)
sea level
(mb)
Rmks
8:53 pm CDT SE 4.6 10.00 Overcast -- 32.0 27.5 83% 27 NA 30.12 M
7:53 pm CDT SE 3.5 10.00 Overcast -- 32.0 27.9 85% NA NA 30.12 M
6:53 pm CDT N 0.0 10.00 Overcast -- 32.0 26.2 78% NA NA 30.12 M
5:53 pm CDT SE 3.5 7.00 Fair -- 32.0 25.7 77% NA NA 30.10 M
4:53 pm CDT E 4.6 10.00 Fair -- 33.0 23.9 70% 29 NA 30.11 M
3:53 pm CDT N 0.0 10.00 Fair -- 33.0 24.1 70% NA NA 30.11 M
2:53 pm CDT N 4.6 10.00 Fair -- 32.0 23.2 69% 27 NA 30.13 M
1:53 pm CDT NE 4.6 7.00 Fair -- 32.0 23.7 72% 27 NA 30.14 M
12:53 pm CDT N 8.1 7.00 Partly Cloudy -- 31.0 23.5 75% 24 NA 30.17 M
11:53 am CDT N 8.1 7.00 Partly Cloudy -- 30.0 23.2 77% 22 NA 30.17 M
10:53 am CDT NW 10.4 7.00 Partly Cloudy -- 28.0 23.0 83% 19 NA 30.19 M
9:53 am CDT NW 9.2 7.00 Fair -- 26.0 22.1 87% 17 NA 30.18 M
8:53 am CDT NW 9.2 7.00 Fair -- 24.0 21.2 91% 14 NA 30.16 M
7:53 am CDT NW 10.4 7.00 Mostly Cloudy -- 24.0 21.6 91% 14 NA 30.15 M
6:53 am CDT NW 11.5 10.00 Fair -- 24.0 22.1 91% 13 NA 30.15 M
5:53 am CDT NW 9.2 7.00 Fair -- 26.0 23.0 90% 17 NA 30.13 M
4:53 am CDT NW 12.7 G 18.4 7.00 Partly Cloudy -- 26.0 23.9 91% 15 NA 30.14 M
3:53 am CDT NW 10.4 7.00 Fair -- 26.0 23.9 90% 16 NA 30.14 M
2:53 am CDT N 9.2 10.00 Fair -- 28.0 23.9 86% 19 NA 30.13 M
1:13 am CDT N 15.0 7.00 Fair -- 29.0 25.7 86% 18 NA 30.12 M
12:53 am CDT N 16.1 G 19.6 7.00 Fair -- 30.0 25.7 85% 19 NA 30.12 M
11:53 pm CDT N 13.8 G 20.7 7.00 Fair -- 30.0 27.3 89% 19 NA 30.12 M
10:53 pm CDT N 21.9 G 27.6 7.00 Overcast and Breezy -- 32.0 29.7 91% 19 NA 30.10 M
9:53 pm CDT N 16.1 G 26.5 7.00 Fair -- 33.0 30.4 91% 22 NA 30.07 M

Regional Weather Observation


Marshall, Southwest Minnesota Regional Airport - Marshall/Ryan Field, MN (KMML)

Overcast
34.0 F

Slayton Municipal Airport, MN (KDVP)

Overcast
32.0 F

Pipestone Municipal Airport, MN (KPQN)

NULL
34.0 F

Canby Airfield, MN (KCNB)

Overcast
35.0 F

Brookings, Brookings Municipal Airport, SD (KBKX)

Overcast
34.0 F

Granite Falls, Granite Falls Municipal Airport/Lenzen-Roe Memorial Field, MN (KGDB)

Overcast
34.0 F